星链-36672(STARLINK-36672)

导读

STARLINK-36672是美国SpaceX公司星链(Starlink)星座的成员卫星,于2026年2月20日发射升空。星链项目旨在搭建覆盖全球的低轨卫星互联网,为偏远地区等网络薄弱区域提供高速宽带服务。该卫星运行于近地轨道,采用平板设计,搭载霍尔推进器,具备自主避撞能力,服役结束后会主动离轨并在大气层中焚毁,是SpaceX构建全球卫星通信网络的重要组成部分。

Basic Information
目录编号:
67874
目录名称:
STARLINK-36730
国际标识:
2026-034AA
轨道中心:
EARTH
卫星名称:
星链-36672
卫星全名:
星链-36672(STARLINK-36672)
卫星状态:
在轨 (已飞行197 天)
发射日期:
2026-02-20 UTC
国别 :
美国 (US)
星等 :
--
Orbit Information
数据来源 国际轨道数据
星历时间: 2026-09-04T12:32:26+0800
1天前
查看轨道信息
半长轴: 6840.852km
偏心率: 0.0001068
轨道倾角: 53.157°
近地点辐角 79.680°
升交点赤经 90.240°
平近点角 280.432°
近地点: 461.984km
远地点: 463.446km
周期: 93.848分钟
每日圈数: 15.343962
Detailed Information
固有亮度:
5
最大亮度:
2.5
卫星平台:
Starlink V1.0
覆盖范围:
全球
运营商:
太空探索技术公司
运营商所在国:
美国
制造商(研发单位):
太空探索技术公司
制造商所在国:
美国
使用方式:
暂无
Satellite Introduction
Starlink 计划是 SpaceX 推出的全球卫星互联网项目,通过发射低轨道卫星,为全球尤其是偏远地区提供高速、低延迟的互联网服务。自 2019 年起,Starlink 已部署数千颗卫星,旨在缩小全球数字鸿沟,推动互联网普及。该项目还为军事、航空等行业提供通信支持,带来广泛经济效益。
2D Orbit Map
3D Orbit Map
Orbit Altitude Analysis Chart
Orbit Inclination Analysis Chart
Orbit Comprehensive Analysis Chart
View Comprehensive Chart
Conjunction Data List
Event ID Objects TCA Miss Dist (km) Collision Risk Probability Collision Risk Index (CRI) Action
CDM_260906-190705-850106-787422
TLV R/B (58501)
2026-09-06T
19:07:29+0000
0.494 km
远距离
1.824743E-4 高风险 0.8
CDM_260907-035105-248806-787422
2026-09-07T
03:51:24+0000
2.711 km
极远距离
1.264321E-6 低风险 0.37
CDM_260907-113405-285806-787421
2026-09-07T
11:34:01+0000
2.862 km
极远距离
1.256928E-6 低风险 0.37
CDM_260906-191905-302506-787421
2026-09-06T
19:19:19+0000
2.559 km
极远距离
1.243234E-6 低风险 0.37
CDM_260906-173905-250206-787421
2026-09-06T
17:39:10+0000
2.834 km
极远距离
1.237108E-6 低风险 0.37
CDM_260905-125005-209006-787421
2026-09-05T
12:50:18+0000
2.638 km
极远距离
1.184519E-6 低风险 0.36
CDM_260829-133206-168106-787421
2026-08-29T
13:32:03+0000
2.919 km
极远距离
1.101304E-6 低风险 0.36
CDM_260829-120105-944206-787421
TSAT-1A (59442)
2026-08-29T
12:01:37+0000
2.471 km
极远距离
8.180843E-7 极低风险 0.33